| time (UTC) | temp F | wind direction | speed knots | gust knots | rain 1hr in | rain 24hr in | rain mn in | humidity % | barometer mb |
| 20260507113030 | 59 | 323 | 4.3 | 9.6 | 0.00 | 0.00 | 0.00 | 38 | 1013.4 |
| 20260507111534 | 58 | 177 | 0.0 | 0.9 | 0.00 | 0.00 | 0.00 | 36 | 1013.5 |
| 20260507110027 | 58 | 177 | 0.9 | 4.3 | 0.00 | 0.00 | 0.00 | 38 | 1013.4 |
| 20260507104526 | 56 | 164 | 1.7 | 3.5 | 0.00 | 0.00 | 0.00 | 39 | 1013.3 |
| 20260507103023 | 58 | 233 | 2.6 | 7.8 | 0.00 | 0.00 | 0.00 | 38 | 1013.1 |
| 20260507101522 | 56 | 122 | 0.9 | 5.2 | 0.00 | 0.00 | 0.00 | 37 | 1013.1 |
| 20260507100019 | 57 | 151 | 0.0 | 7.0 | 0.00 | 0.00 | 0.00 | 37 | 1013.0 |
| 20260507094517 | 56 | 170 | 1.7 | 4.3 | 0.00 | 0.00 | 0.00 | 38 | 1012.9 |
| 20260507093017 | 56 | 106 | 0.0 | 7.0 | 0.00 | 0.00 | 0.00 | 39 | 1012.9 |
| 20260507091518 | 55 | 150 | 2.6 | 5.2 | 0.00 | 0.00 | 0.00 | 43 | 1013.0 |
| 20260507090021 | 55 | 157 | 0.9 | 4.3 | 0.00 | 0.00 | 0.00 | 43 | 1012.9 |
| 20260507084510 | 55 | 140 | 0.0 | 3.5 | 0.00 | 0.00 | 0.00 | 45 | 1013.0 |
| 20260507083006 | 54 | 158 | 0.0 | 2.6 | 0.00 | 0.00 | 0.00 | 49 | 1012.9 |
| 20260507081504 | 54 | 131 | 0.9 | 2.6 | 0.00 | 0.00 | 0.00 | 50 | 1012.8 |
| 20260507080003 | 53 | 33 | 0.0 | 2.6 | 0.00 | 0.00 | 0.00 | 51 | 1012.7 |
| 20260507074600 | 54 | 158 | 0.0 | 0.9 | 0.00 | 0.00 | 0.00 | 50 | 1012.7 |
| 20260507073106 | 52 | 143 | 0.0 | 2.6 | 0.00 | 0.00 | 0.00 | 54 | 1012.6 |
| 20260507071556 | 51 | 150 | 0.0 | 3.5 | 0.00 | 0.00 | 0.00 | 54 | 1012.6 |
| 20260507070055 | 53 | 112 | 0.0 | 1.7 | 0.00 | 0.00 | 0.00 | 53 | 1012.6 |
| 20260507064552 | 50 | 78 | 0.0 | 1.7 | 0.00 | 0.00 | 0.00 | 57 | 1012.5 |
| 20260507063056 | 50 | 87 | 0.0 | 0.9 | 0.00 | 0.00 | 0.00 | 56 | 1012.5 |
| 20260507061549 | 48 | 30 | 0.0 | 1.7 | 0.00 | 0.00 | 0.00 | 58 | 1012.4 |
| 20260507060050 | 47 | 126 | 0.0 | 2.6 | 0.00 | 0.00 | 0.00 | 60 | 1012.4 |
| 20260507054541 | 45 | 73 | 1.7 | 4.3 | 0.00 | 0.00 | 0.00 | 61 | 1012.2 |
| 20260507053039 | 44 | 334 | 2.6 | 4.3 | 0.00 | 0.00 | 0.00 | 62 | 1012.2 |
| 20260507051538 | 44 | 329 | 2.6 | 5.2 | 0.00 | 0.00 | 0.00 | 62 | 1012.1 |
| 20260507050035 | 42 | 94 | 0.0 | 0.0 | 0.00 | 0.00 | 0.00 | 68 | 1012.0 |
| 20260507044534 | 39 | 106 | 0.0 | 0.0 | 0.00 | 0.00 | 0.00 | 71 | 1012.0 |
| 20260507043033 | 38 | 106 | 0.0 | 0.0 | 0.00 | 0.00 | 0.00 | 74 | 1011.8 |
| 20260507041531 | 37 | 106 | 0.0 | 0.0 | 0.00 | 0.00 | 0.00 | 73 | 1011.8 |
| 20260507040030 | 37 | 106 | 0.0 | 0.0 | 0.00 | 0.00 | 0.00 | 73 | 1011.7 |
| 20260507034530 | 37 | 353 | 0.0 | 0.0 | 0.00 | 0.00 | 0.00 | 71 | 1011.7 |
| 20260507033030 | 37 | 353 | 0.0 | 0.0 | 0.00 | 0.00 | 0.00 | 71 | 1011.4 |
| 20260507031526 | 38 | 329 | 0.0 | 1.7 | 0.00 | 0.00 | 0.00 | 68 | 1011.3 |
| 20260507030026 | 37 | 329 | 0.0 | 1.7 | 0.00 | 0.00 | 0.00 | 72 | 1011.2 |
| 20260507024525 | 36 | 308 | 0.0 | 0.0 | 0.00 | 0.00 | 0.00 | 74 | 1011.4 |
| 20260507023023 | 35 | 307 | 0.0 | 0.9 | 0.00 | 0.00 | 0.00 | 74 | 1011.4 |
| 20260507021524 | 35 | 304 | 0.0 | 0.9 | 0.00 | 0.00 | 0.00 | 74 | 1011.4 |
| 20260507020028 | 35 | 304 | 0.0 | 0.0 | 0.00 | 0.00 | 0.00 | 70 | 1011.4 |
| 20260507014526 | 37 | 304 | 0.0 | 0.0 | 0.00 | 0.00 | 0.00 | 66 | 1011.3 |
| 20260507013023 | 38 | 304 | 0.0 | 0.0 | 0.00 | 0.00 | 0.00 | 64 | 1011.3 |
| 20260507011512 | 39 | 295 | 0.9 | 3.5 | 0.00 | 0.00 | 0.00 | 62 | 1011.1 |
| 20260507010005 | 40 | 317 | 0.0 | 1.7 | 0.00 | 0.00 | 0.00 | 60 | 1011.2 |
| 20260507004504 | 41 | 320 | 0.0 | 3.5 | 0.00 | 0.00 | 0.00 | 59 | 1011.1 |
| 20260507003005 | 41 | 304 | 0.9 | 3.5 | 0.00 | 0.00 | 0.00 | 59 | 1011.1 |
| 20260507001504 | 41 | 314 | 0.9 | 5.2 | 0.00 | 0.00 | 0.00 | 60 | 1011.1 |
| 20260506234556 | 42 | 348 | 0.0 | 1.7 | 0.00 | 0.00 | 0.00 | 58 | 1011.1 |
| 20260506233109 | 42 | 342 | 0.0 | 1.7 | 0.00 | 0.00 | 0.00 | 58 | 1011.1 |
| 20260506231559 | 42 | 342 | 0.0 | 1.7 | 0.00 | 0.00 | 0.00 | 57 | 1011.1 |
| 20260506230053 | 43 | 356 | 0.0 | 2.6 | 0.00 | 0.00 | 0.00 | 56 | 1011.0 |
| 20260506224552 | 43 | 336 | 0.0 | 3.5 | 0.00 | 0.00 | 0.00 | 55 | 1011.0 |
| 20260506223049 | 44 | 319 | 0.0 | 5.2 | 0.00 | 0.00 | 0.00 | 55 | 1011.0 |
| 20260506221549 | 44 | 356 | 0.9 | 5.2 | 0.00 | 0.00 | 0.00 | 54 | 1011.0 |
| 20260506220045 | 43 | 46 | 0.0 | 2.6 | 0.00 | 0.00 | 0.00 | 54 | 1010.9 |
| 20260506214544 | 43 | 332 | 0.9 | 4.3 | 0.00 | 0.00 | 0.00 | 55 | 1011.0 |
| 20260506213058 | 43 | 349 | 0.0 | 2.6 | 0.00 | 0.00 | 0.00 | 55 | 1010.8 |
| 20260506211546 | 43 | 307 | 0.0 | 2.6 | 0.00 | 0.00 | 0.00 | 54 | 1010.7 |
| 20260506210042 | 44 | 328 | 0.0 | 4.3 | 0.00 | 0.00 | 0.00 | 52 | 1010.7 |
| 20260506204541 | 44 | 306 | 0.9 | 6.1 | 0.00 | 0.00 | 0.00 | 51 | 1010.6 |
| 20260506203041 | 44 | 309 | 0.9 | 2.6 | 0.00 | 0.00 | 0.00 | 50 | 1010.7 |
| 20260506201542 | 45 | 324 | 0.9 | 3.5 | 0.00 | 0.00 | 0.00 | 48 | 1010.7 |
| 20260506200039 | 45 | 316 | 0.0 | 2.6 | 0.00 | 0.00 | 0.00 | 47 | 1010.6 |
| 20260506194539 | 46 | 354 | 0.9 | 5.2 | 0.00 | 0.00 | 0.00 | 45 | 1010.5 |
| 20260506193040 | 46 | 356 | 0.9 | 6.1 | 0.00 | 0.00 | 0.00 | 44 | 1010.4 |
| 20260506191541 | 47 | 325 | 0.9 | 4.3 | 0.00 | 0.00 | 0.00 | 43 | 1010.4 |
| 20260506190037 | 48 | 335 | 1.7 | 5.2 | 0.00 | 0.00 | 0.00 | 41 | 1010.3 |
| 20260506184547 | 49 | 348 | 1.7 | 6.1 | 0.00 | 0.00 | 0.00 | 39 | 1010.1 |
| 20260506183050 | 50 | 316 | 2.6 | 5.2 | 0.00 | 0.00 | 0.00 | 37 | 1010.0 |
| 20260506181600 | 52 | 306 | 3.5 | 7.8 | 0.00 | 0.00 | 0.00 | 36 | 1009.9 |
| 20260506180036 | 52 | 304 | 1.7 | 10.4 | 0.00 | 0.00 | 0.00 | 34 | 1009.6 |
| 20260506174534 | 53 | 297 | 0.9 | 8.7 | 0.00 | 0.00 | 0.00 | 33 | 1009.6 |
| 20260506173052 | 55 | 303 | 1.7 | 8.7 | 0.00 | 0.00 | 0.00 | 31 | 1009.4 |
| 20260506171533 | 56 | 210 | 1.7 | 5.2 | 0.00 | 0.00 | 0.00 | 28 | 1009.4 |
| 20260506170038 | 57 | 44 | 0.0 | 2.6 | 0.00 | 0.00 | 0.00 | 23 | 1009.3 |
| 20260506164537 | 58 | 72 | 0.0 | 3.5 | 0.00 | 0.00 | 0.00 | 22 | 1009.3 |
| 20260506163037 | 58 | 347 | 0.9 | 7.0 | 0.00 | 0.00 | 0.00 | 22 | 1009.4 |
| 20260506161530 | 58 | 69 | 0.0 | 1.7 | 0.00 | 0.00 | 0.00 | 22 | 1009.4 |
| 20260506160029 | 59 | 62 | 0.9 | 4.3 | 0.00 | 0.00 | 0.00 | 21 | 1009.4 |
| 20260506154529 | 58 | 148 | 0.0 | 5.2 | 0.00 | 0.00 | 0.00 | 23 | 1009.5 |
| 20260506153027 | 58 | 143 | 0.9 | 4.3 | 0.00 | 0.00 | 0.00 | 21 | 1009.6 |
| 20260506151526 | 58 | 131 | 0.0 | 3.5 | 0.00 | 0.00 | 0.00 | 22 | 1009.6 |
| 20260506150029 | 58 | 37 | 2.6 | 7.8 | 0.00 | 0.00 | 0.00 | 21 | 1009.7 |
| 20260506144523 | 57 | 51 | 0.0 | 5.2 | 0.00 | 0.00 | 0.00 | 21 | 1009.8 |
| 20260506143023 | 57 | 321 | 0.9 | 5.2 | 0.00 | 0.00 | 0.00 | 23 | 1009.9 |
| 20260506141521 | 57 | 336 | 0.9 | 7.0 | 0.00 | 0.00 | 0.00 | 22 | 1010.0 |
| 20260506140021 | 57 | 340 | 2.6 | 6.1 | 0.00 | 0.00 | 0.00 | 21 | 1010.2 |
| 20260506134518 | 55 | 96 | 0.9 | 6.1 | 0.00 | 0.00 | 0.00 | 22 | 1010.2 |
| 20260506133019 | 56 | 51 | 1.7 | 7.8 | 0.00 | 0.00 | 0.00 | 20 | 1010.3 |
| 20260506131524 | 56 | 110 | 2.6 | 7.0 | 0.00 | 0.00 | 0.00 | 24 | 1010.4 |
| 20260506130014 | 55 | 11 | 0.0 | 8.7 | 0.00 | 0.00 | 0.00 | 28 | 1010.6 |
| 20260506124513 | 56 | 336 | 3.5 | 7.0 | 0.00 | 0.00 | 0.00 | 25 | 1010.6 |
| 20260506123013 | 55 | 354 | 2.6 | 6.1 | 0.00 | 0.00 | 0.00 | 26 | 1010.6 |
| 20260506121513 | 54 | 73 | 1.7 | 11.3 | 0.00 | 0.00 | 0.00 | 27 | 1010.8 |
| 20260506120018 | 54 | 38 | 4.3 | 9.6 | 0.00 | 0.00 | 0.00 | 27 | 1010.8 |
| 20260506114519 | 55 | 128 | 0.9 | 7.8 | 0.00 | 0.00 | 0.00 | 26 | 1010.8 |